Total_Precipitation_Accumulation
0.12 0.15 0.19 0.17 0.19 0.22 0.27 0.41 0.59 0.42 0.11 0.03 0.04 0.08 0.13 0.15 0.16 0.15 0.13 0.14 0.19 0.25 0.32 0.33 0.32 0.38 0.58 1.08 1.98 3.27 3.91 3.27 2.35 1.93 1.77 1.88 2.13 2.51
0.16 0.20 0.21 0.21 0.22 0.23 0.29 0.33 0.47 0.58 0.35 0.05 0.04 0.08 0.18 0.19 0.17 0.15 0.15 0.16 0.17 0.18 0.21 0.26 0.30 0.34 0.44 0.66 1.12 1.91 3.10 3.73 3.30 2.56 2.07 2.05 2.18 2.45
0.18 0.22 0.23 0.26 0.29 0.26 0.30 0.33 0.34 0.40 0.39 0.10 0.04 0.05 0.15 0.22 0.20 0.15 0.15 0.16 0.15 0.16 0.19 0.23 0.29 0.37 0.47 0.59 0.79 1.20 1.89 2.87 3.50 3.28 2.73 2.36 2.24 2.28
0.20 0.24 0.26 0.25 0.26 0.24 0.27 0.28 0.26 0.25 0.31 0.20 0.06 0.05 0.11 0.19 0.27 0.27 0.22 0.20 0.18 0.18 0.21 0.27 0.35 0.39 0.45 0.55 0.71 0.94 1.31 1.87 2.64 3.11 3.03 2.68 2.38 2.32
0.23 0.26 0.26 0.26 0.25 0.22 0.27 0.28 0.23 0.20 0.25 0.28 0.14 0.08 0.12 0.15 0.26 0.36 0.31 0.26 0.24 0.22 0.22 0.25 0.32 0.39 0.41 0.46 0.58 0.76 0.96 1.21 1.63 2.39 2.92 2.83 2.63 2.48
0.17 0.17 0.24 0.34 0.33 0.32 0.35 0.30 0.27 0.30 0.34 0.40 0.29 0.17 0.18 0.18 0.28 0.40 0.44 0.40 0.33 0.27 0.26 0.25 0.29 0.40 0.43 0.39 0.38 0.46 0.65 0.95 1.26 1.68 2.31 2.71 2.63 2.51
0.11 0.11 0.19 0.33 0.38 0.53 0.64 0.55 0.54 0.63 0.60 0.61 0.53 0.42 0.36 0.37 0.41 0.41 0.56 0.56 0.48 0.39 0.33 0.27 0.27 0.27 0.29 0.30 0.30 0.33 0.41 0.59 0.89 1.25 1.65 2.14 2.51 2.56
0.12 0.09 0.12 0.24 0.28 0.36 0.52 0.63 0.72 0.86 0.91 0.89 0.84 0.73 0.53 0.46 0.45 0.54 0.61 0.72 0.70 0.53 0.46 0.36 0.33 0.35 0.30 0.28 0.30 0.29 0.36 0.47 0.69 1.00 1.33 1.64 2.05 2.44
0.10 0.08 0.10 0.18 0.24 0.32 0.37 0.41 0.47 0.63 0.85 0.96 1.00 0.73 0.55 0.47 0.57 0.70 0.68 0.73 0.72 0.70 0.77 0.65 0.44 0.42 0.39 0.43 0.47 0.39 0.39 0.45 0.58 0.81 1.09 1.35 1.63 1.98
0.06 0.07 0.08 0.12 0.25 0.45 0.47 0.42 0.37 0.44 0.65 0.85 1.05 0.90 0.71 0.68 0.88 1.09 1.13 1.03 0.79 0.72 0.88 0.94 0.63 0.51 0.54 0.57 0.58 0.49 0.43 0.43 0.51 0.68 0.89 1.11 1.34 1.62
0.04 0.05 0.08 0.12 0.26 0.50 0.54 0.42 0.30 0.30 0.37 0.62 0.89 1.02 0.99 1.02 1.18 1.50 1.61 1.43 1.10 0.78 0.84 1.02 0.92 0.76 0.80 0.85 0.77 0.63 0.50 0.49 0.52 0.61 0.73 0.86 1.07 1.41
0.07 0.06 0.10 0.23 0.35 0.50 0.49 0.46 0.54 0.42 0.34 0.35 0.41 0.54 0.66 0.75 0.96 1.29 1.50 1.48 1.21 1.09 0.95 0.99 1.14 1.10 1.20 1.12 0.98 0.74 0.55 0.53 0.55 0.60 0.62 0.67 0.81 1.01
0.15 0.12 0.10 0.24 0.35 0.43 0.51 0.53 0.69 0.62 0.46 0.44 0.40 0.39 0.42 0.53 0.70 1.00 1.34 1.50 1.39 1.19 1.01 1.14 1.41 1.28 1.24 1.17 1.08 0.99 0.70 0.53 0.52 0.61 0.64 0.62 0.65 0.71
0.17 0.11 0.11 0.23 0.33 0.42 0.44 0.49 0.53 0.51 0.47 0.41 0.34 0.33 0.37 0.44 0.54 0.73 1.04 1.25 1.26 1.13 0.97 1.17 1.58 1.41 1.20 1.04 1.03 1.13 0.97 0.72 0.58 0.57 0.61 0.75 0.76 0.74
0.17 0.18 0.23 0.28 0.29 0.23 0.23 0.32 0.37 0.38 0.48 0.47 0.36 0.30 0.35 0.46 0.51 0.57 0.72 1.01 1.17 1.15 1.09 1.14 1.44 1.51 1.39 1.14 0.94 1.05 1.13 1.03 0.78 0.70 0.67 0.66 0.61 0.59
0.27 0.23 0.25 0.24 0.18 0.13 0.12 0.14 0.18 0.28 0.44 0.49 0.40 0.30 0.29 0.36 0.47 0.59 0.70 0.87 1.09 1.15 1.16 1.25 1.47 1.74 1.64 1.25 1.05 1.00 0.97 1.11 1.03 0.87 0.78 0.72 0.61 0.45
0.40 0.44 0.32 0.23 0.21 0.17 0.13 0.10 0.11 0.18 0.26 0.30 0.34 0.34 0.31 0.33 0.40 0.52 0.73 0.88 1.03 1.11 1.22 1.39 1.56 1.74 1.79 1.69 1.49 1.15 0.94 0.91 0.98 0.97 0.92 0.89 0.81 0.60
0.46 0.49 0.30 0.20 0.19 0.18 0.17 0.14 0.12 0.13 0.16 0.22 0.28 0.32 0.36 0.38 0.40 0.44 0.60 0.81 0.98 1.05 1.14 1.29 1.50 1.70 1.86 1.96 1.76 1.36 1.06 0.92 0.99 1.08 1.02 0.98 0.99 0.82
0.36 0.29 0.20 0.17 0.17 0.17 0.18 0.18 0.15 0.12 0.15 0.20 0.22 0.26 0.31 0.35 0.38 0.41 0.48 0.64 0.83 0.98 1.10 1.19 1.33 1.49 1.63 1.81 1.94 1.62 1.25 1.01 1.02 1.23 1.25 1.06 0.95 0.88
0.23 0.22 0.20 0.18 0.18 0.19 0.19 0.19 0.17 0.15 0.16 0.17 0.18 0.19 0.25 0.32 0.35 0.35 0.41 0.55 0.71 0.86 0.97 1.08 1.24 1.37 1.43 1.42 1.57 1.71 1.61 1.26 1.06 1.20 1.36 1.29 1.18 1.13
0.18 0.18 0.17 0.19 0.19 0.19 0.19 0.19 0.18 0.17 0.15 0.16 0.16 0.17 0.19 0.25 0.28 0.29 0.35 0.45 0.59 0.74 0.84 0.90 1.05 1.23 1.42 1.43 1.35 1.39 1.60 1.62 1.27 1.15 1.27 1.36 1.37 1.31
0.17 0.18 0.17 0.18 0.20 0.20 0.20 0.19 0.19 0.16 0.14 0.14 0.14 0.14 0.14 0.18 0.22 0.24 0.29 0.37 0.46 0.59 0.73 0.83 0.95 1.16 1.42 1.54 1.46 1.36 1.46 1.65 1.67 1.48 1.34 1.24 1.18 1.09
0.22 0.22 0.20 0.18 0.18 0.19 0.20 0.19 0.19 0.15 0.13 0.13 0.13 0.12 0.12 0.14 0.15 0.19 0.24 0.30 0.39 0.48 0.60 0.76 0.91 1.06 1.28 1.47 1.56 1.49 1.40 1.44 1.54 1.59 1.69 1.50 1.09 0.81